Location: Waco, TX
(31.5480°N, 97.1670°W)
Time: 11:28:29

ISS - Pass Details

Date: 10 March 2018
Orbit: 403 x 406 km, 51.6° (Epoch: 20 March)

Event Time Altitude Azimuth Distance (km) Brightness Sun altitude
Rises 01:24:09 0° 229° (SW) 2,312 - -60.6°
Reaches altitude 10° 01:26:14 10° 232° (SW) 1,456 - -60.4°
Maximum altitude 01:29:28 66° 316° (NW) 443 - -60.1°
Drops below altitude 10° 01:32:44 10° 39° (NE) 1,462 - -59.8°
Sets 01:34:50 0° 43° (NE) 2,324 - -59.6°
